| time (UTC) | temp F | wind direction | speed MPH | gust MPH | rain 1hr in | rain 24hr in | rain mn in | humidity % | barometer mb |
| 20260508171641 | 52 | 356 | 4.0 | 6.0 | 0.00 | 0.00 | 0.00 | 42 | 1011.4 |
| 20260508171141 | 52 | 335 | 7.0 | 8.0 | 0.00 | 0.00 | 0.00 | 43 | 1011.2 |
| 20260508170639 | 51 | 314 | 3.0 | 5.0 | 0.00 | 0.00 | 0.00 | 45 | 1011.2 |
| 20260508163637 | 50 | 313 | 2.0 | 3.0 | 0.00 | 0.00 | 0.00 | 45 | 1011.6 |
| 20260508163136 | 50 | 295 | 3.0 | 6.0 | 0.00 | 0.00 | 0.00 | 45 | 1011.6 |
| 20260508162737 | 50 | 323 | 3.0 | 6.0 | 0.00 | 0.00 | 0.00 | 47 | 1011.4 |
| 20260508162136 | 50 | 332 | 4.0 | 7.0 | 0.00 | 0.00 | 0.00 | 45 | 1011.2 |
| 20260508161135 | 50 | 1 | 3.0 | 5.0 | 0.00 | 0.00 | 0.00 | 45 | 1011.2 |
| 20260508160135 | 51 | 1 | 1.0 | 1.0 | 0.00 | 0.00 | 0.00 | 43 | 1011.2 |
| 20260508155634 | 50 | 337 | 3.0 | 5.0 | 0.00 | 0.00 | 0.00 | 44 | 1011.2 |
| 20260508155133 | 51 | 3 | 7.0 | 10.0 | 0.00 | 0.00 | 0.00 | 43 | 1011.2 |
| 20260508154632 | 51 | 7 | 8.0 | 17.0 | 0.00 | 0.00 | 0.00 | 42 | 1011.2 |
| 20260508154134 | 50 | 344 | 1.0 | 2.0 | 0.00 | 0.00 | 0.00 | 43 | 1011.2 |
| 20260508153633 | 52 | 321 | 4.0 | 7.0 | 0.00 | 0.00 | 0.00 | 42 | 1011.2 |
| 20260508153234 | 53 | 133 | 3.0 | 7.0 | 0.00 | 0.00 | 0.00 | 41 | 1011.2 |
| 20260508152632 | 53 | 336 | 1.0 | 2.0 | 0.00 | 0.00 | 0.00 | 43 | 1010.9 |
| 20260508152133 | 52 | 313 | 3.0 | 5.0 | 0.00 | 0.00 | 0.00 | 43 | 1010.9 |
| 20260508151633 | 52 | 10 | 5.0 | 8.0 | 0.00 | 0.00 | 0.00 | 42 | 1010.9 |
| 20260508151131 | 51 | 328 | 4.0 | 7.0 | 0.00 | 0.00 | 0.00 | 42 | 1010.9 |
| 20260508150630 | 50 | 356 | 5.0 | 9.0 | 0.00 | 0.00 | 0.00 | 43 | 1010.9 |
| 20260508140126 | 49 | 269 | 5.0 | 8.0 | 0.00 | 0.00 | 0.00 | 50 | 1011.2 |
| 20260508135627 | 48 | 1 | 7.0 | 10.0 | 0.00 | 0.00 | 0.00 | 52 | 1011.2 |
| 20260508135126 | 48 | 340 | 6.0 | 9.0 | 0.00 | 0.00 | 0.00 | 51 | 1011.4 |
| 20260508134625 | 50 | 355 | 9.0 | 14.0 | 0.00 | 0.00 | 0.00 | 50 | 1011.6 |
| 20260508133626 | 48 | 335 | 0.0 | 1.0 | 0.00 | 0.00 | 0.00 | 53 | 1011.6 |
| 20260508133126 | 47 | 327 | 2.0 | 3.0 | 0.00 | 0.00 | 0.00 | 54 | 1011.6 |
| 20260508132624 | 47 | 358 | 3.0 | 8.0 | 0.00 | 0.00 | 0.00 | 54 | 1011.6 |
| 20260508132123 | 46 | 14 | 3.0 | 5.0 | 0.00 | 0.00 | 0.00 | 55 | 1011.6 |
| 20260508131622 | 47 | 358 | 3.0 | 5.0 | 0.00 | 0.00 | 0.00 | 56 | 1011.6 |
| 20260508131124 | 46 | 343 | 2.0 | 3.0 | 0.00 | 0.00 | 0.00 | 58 | 1011.6 |
| 20260508130623 | 45 | 318 | 3.0 | 5.0 | 0.00 | 0.00 | 0.00 | 58 | 1011.7 |
| 20260508130122 | 45 | 316 | 4.0 | 7.0 | 0.00 | 0.00 | 0.00 | 59 | 1011.6 |
| 20260508125621 | 45 | 314 | 2.0 | 3.0 | 0.00 | 0.00 | 0.00 | 59 | 1011.6 |
| 20260508125120 | 45 | 312 | 4.0 | 8.0 | 0.00 | 0.00 | 0.00 | 60 | 1011.6 |
| 20260508124622 | 44 | 326 | 1.0 | 2.0 | 0.00 | 0.00 | 0.00 | 59 | 1011.6 |
| 20260508124121 | 44 | 353 | 2.0 | 5.0 | 0.00 | 0.00 | 0.00 | 59 | 1011.6 |
| 20260508123621 | 44 | 318 | 5.0 | 7.0 | 0.00 | 0.00 | 0.00 | 60 | 1011.6 |
| 20260508123121 | 44 | 340 | 2.0 | 2.0 | 0.00 | 0.00 | 0.00 | 60 | 1011.6 |
| 20260508122620 | 44 | 313 | 3.0 | 7.0 | 0.00 | 0.00 | 0.00 | 61 | 1011.6 |
| 20260508122122 | 44 | 328 | 4.0 | 8.0 | 0.00 | 0.00 | 0.00 | 60 | 1011.6 |
| 20260508121718 | 44 | 323 | 3.0 | 5.0 | 0.00 | 0.00 | 0.00 | 61 | 1011.4 |
| 20260508121122 | 44 | 315 | 3.0 | 5.0 | 0.00 | 0.00 | 0.00 | 60 | 1011.6 |
| 20260508120620 | 44 | 330 | 1.0 | 1.0 | 0.00 | 0.00 | 0.00 | 61 | 1011.6 |
| 20260508120118 | 45 | 321 | 5.0 | 7.0 | 0.00 | 0.00 | 0.00 | 59 | 1011.6 |
| 20260508115617 | 46 | 321 | 3.0 | 3.0 | 0.00 | 0.00 | 0.00 | 60 | 1011.6 |
| 20260508115118 | 45 | 14 | 3.0 | 8.0 | 0.00 | 0.00 | 0.00 | 62 | 1011.6 |
| 20260508114617 | 44 | 330 | 2.0 | 3.0 | 0.00 | 0.00 | 0.00 | 62 | 1011.6 |
| 20260508114117 | 44 | 341 | 1.0 | 2.0 | 0.00 | 0.00 | 0.00 | 61 | 1011.2 |
| 20260508113621 | 44 | 322 | 4.0 | 6.0 | 0.00 | 0.00 | 0.00 | 61 | 1011.2 |
| 20260508113217 | 45 | 12 | 5.0 | 9.0 | 0.00 | 0.00 | 0.00 | 60 | 1011.2 |
| 20260508112656 | 45 | 302 | 2.0 | 2.0 | 0.00 | 0.00 | 0.00 | 63 | 1011.2 |
| 20260508102143 | 39 | 330 | 1.0 | 1.0 | 0.00 | 0.00 | 0.00 | 69 | 1010.5 |
| 20260508101641 | 39 | 336 | 0.0 | 1.0 | 0.00 | 0.00 | 0.00 | 73 | 1010.5 |
| 20260508101140 | 40 | 327 | 0.0 | 1.0 | 0.00 | 0.00 | 0.00 | 70 | 1010.1 |
| 20260508100641 | 40 | 327 | 1.0 | 1.0 | 0.00 | 0.00 | 0.00 | 70 | 1010.3 |
| 20260508100140 | 40 | 0.0 | 0.0 | 0.00 | 0.00 | 0.00 | 71 | 1010.5 | |
| 20260508095640 | 40 | 334 | 1.0 | 2.0 | 0.00 | 0.00 | 0.00 | 70 | 1010.1 |
| 20260508095138 | 39 | 329 | 1.0 | 1.0 | 0.00 | 0.00 | 0.00 | 71 | 1010.5 |
| 20260508094640 | 38 | 330 | 1.0 | 2.0 | 0.00 | 0.00 | 0.00 | 75 | 1010.3 |
| 20260508094139 | 38 | 337 | 1.0 | 1.0 | 0.00 | 0.00 | 0.00 | 75 | 1010.1 |
| 20260508093638 | 37 | 327 | 2.0 | 2.0 | 0.00 | 0.00 | 0.00 | 76 | 1010.1 |
| 20260508093137 | 37 | 335 | 1.0 | 1.0 | 0.00 | 0.00 | 0.00 | 77 | 1010.1 |
| 20260508092638 | 37 | 323 | 1.0 | 2.0 | 0.00 | 0.00 | 0.00 | 79 | 1010.1 |
| 20260508092138 | 36 | 331 | 1.0 | 1.0 | 0.00 | 0.00 | 0.00 | 80 | 1010.1 |
| 20260508091638 | 36 | 325 | 1.0 | 1.0 | 0.00 | 0.00 | 0.00 | 80 | 1010.1 |
| 20260508091136 | 35 | 336 | 1.0 | 1.0 | 0.00 | 0.00 | 0.00 | 83 | 1010.1 |
| 20260508090637 | 35 | 326 | 2.0 | 2.0 | 0.00 | 0.00 | 0.00 | 85 | 1010.1 |
| 20260508090137 | 35 | 335 | 1.0 | 1.0 | 0.00 | 0.00 | 0.00 | 82 | 1010.1 |
| 20260508085636 | 35 | 331 | 2.0 | 2.0 | 0.00 | 0.00 | 0.00 | 84 | 1010.1 |
| 20260508085137 | 35 | 323 | 2.0 | 2.0 | 0.00 | 0.00 | 0.00 | 83 | 1009.8 |
| 20260508084636 | 35 | 325 | 2.0 | 2.0 | 0.00 | 0.00 | 0.00 | 83 | 1010.0 |
| 20260508084135 | 35 | 321 | 2.0 | 2.0 | 0.00 | 0.00 | 0.00 | 81 | 1010.1 |
| 20260508083634 | 34 | 333 | 2.0 | 3.0 | 0.00 | 0.00 | 0.00 | 84 | 1010.1 |
| 20260508083135 | 34 | 324 | 2.0 | 2.0 | 0.00 | 0.00 | 0.00 | 85 | 1010.1 |
| 20260508082634 | 34 | 328 | 2.0 | 2.0 | 0.00 | 0.00 | 0.00 | 84 | 1010.1 |
| 20260508082133 | 34 | 324 | 3.0 | 3.0 | 0.00 | 0.00 | 0.00 | 84 | 1010.1 |
| 20260508081634 | 34 | 324 | 2.0 | 2.0 | 0.00 | 0.00 | 0.00 | 84 | 1010.1 |
| 20260508081134 | 33 | 324 | 3.0 | 3.0 | 0.00 | 0.00 | 0.00 | 84 | 1010.1 |
| 20260508080633 | 33 | 323 | 2.0 | 2.0 | 0.00 | 0.00 | 0.00 | 84 | 1010.1 |
| 20260508080132 | 34 | 327 | 3.0 | 3.0 | 0.00 | 0.00 | 0.00 | 84 | 1010.1 |
| 20260508075633 | 33 | 329 | 2.0 | 3.0 | 0.00 | 0.00 | 0.00 | 85 | 1010.1 |
| 20260508075132 | 33 | 326 | 2.0 | 2.0 | 0.00 | 0.00 | 0.00 | 85 | 1009.8 |
| 20260508074631 | 34 | 325 | 2.0 | 2.0 | 0.00 | 0.00 | 0.00 | 85 | 1009.8 |
| 20260508074130 | 34 | 325 | 2.0 | 2.0 | 0.00 | 0.00 | 0.00 | 85 | 1009.8 |
| 20260508073630 | 34 | 325 | 3.0 | 3.0 | 0.00 | 0.00 | 0.00 | 85 | 1009.8 |
| 20260508073131 | 34 | 323 | 2.0 | 3.0 | 0.00 | 0.00 | 0.00 | 84 | 1009.8 |
| 20260508072630 | 34 | 327 | 3.0 | 3.0 | 0.00 | 0.00 | 0.00 | 83 | 1009.8 |
| 20260508072129 | 34 | 323 | 2.0 | 2.0 | 0.00 | 0.00 | 0.00 | 85 | 1009.4 |
| 20260508071629 | 34 | 324 | 3.0 | 3.0 | 0.00 | 0.00 | 0.00 | 85 | 1009.6 |
| 20260508071130 | 34 | 324 | 3.0 | 3.0 | 0.00 | 0.00 | 0.00 | 85 | 1009.8 |
| 20260508070629 | 34 | 328 | 3.0 | 3.0 | 0.00 | 0.00 | 0.00 | 85 | 1009.8 |
| 20260508070128 | 34 | 325 | 3.0 | 3.0 | 0.00 | 0.00 | 0.00 | 84 | 1009.8 |
| 20260508065627 | 34 | 330 | 3.0 | 3.0 | 0.00 | 0.00 | 0.00 | 85 | 1009.8 |
| 20260508065127 | 34 | 326 | 3.0 | 3.0 | 0.00 | 0.00 | 0.00 | 85 | 1009.8 |
| 20260508064631 | 34 | 329 | 3.0 | 3.0 | 0.00 | 0.00 | 0.00 | 84 | 1009.8 |
| 20260508063626 | 34 | 326 | 3.0 | 3.0 | 0.00 | 0.00 | 0.00 | 83 | 1009.8 |
| 20260508063125 | 34 | 322 | 2.0 | 2.0 | 0.00 | 0.00 | 0.00 | 83 | 1009.8 |
| 20260508062627 | 34 | 331 | 3.0 | 3.0 | 0.00 | 0.00 | 0.00 | 84 | 1010.0 |
| 20260508062226 | 34 | 323 | 2.0 | 2.0 | 0.00 | 0.00 | 0.00 | 83 | 1009.8 |
| 20260508061725 | 34 | 328 | 3.0 | 3.0 | 0.00 | 0.00 | 0.00 | 84 | 1009.8 |
| 20260508061124 | 35 | 323 | 2.0 | 2.0 | 0.00 | 0.00 | 0.00 | 82 | 1009.8 |
| 20260508060628 | 34 | 327 | 2.0 | 2.0 | 0.00 | 0.00 | 0.00 | 82 | 1009.8 |
| 20260508060124 | 34 | 327 | 3.0 | 3.0 | 0.00 | 0.00 | 0.00 | 84 | 1009.8 |
| 20260508055625 | 34 | 323 | 2.0 | 2.0 | 0.00 | 0.00 | 0.00 | 84 | 1009.8 |
| 20260508055123 | 34 | 326 | 3.0 | 3.0 | 0.00 | 0.00 | 0.00 | 85 | 1010.0 |
| 20260508054123 | 34 | 331 | 3.0 | 3.0 | 0.00 | 0.00 | 0.00 | 85 | 1009.8 |
| 20260508053622 | 34 | 326 | 2.0 | 2.0 | 0.00 | 0.00 | 0.00 | 85 | 1009.8 |
| 20260508053122 | 35 | 323 | 2.0 | 2.0 | 0.00 | 0.00 | 0.00 | 84 | 1009.8 |
| 20260508052623 | 35 | 335 | 3.0 | 3.0 | 0.00 | 0.00 | 0.00 | 85 | 1009.8 |
| 20260508052122 | 35 | 326 | 2.0 | 2.0 | 0.00 | 0.00 | 0.00 | 85 | 1009.8 |
| 20260508051621 | 35 | 326 | 2.0 | 2.0 | 0.00 | 0.00 | 0.00 | 86 | 1010.0 |
| 20260508051120 | 35 | 327 | 2.0 | 2.0 | 0.00 | 0.00 | 0.00 | 86 | 1010.1 |
| 20260508050727 | 35 | 324 | 2.0 | 2.0 | 0.00 | 0.00 | 0.00 | 86 | 1010.3 |
| 20260508050123 | 35 | 327 | 2.0 | 2.0 | 0.00 | 0.00 | 0.00 | 86 | 1010.3 |
| 20260508045619 | 35 | 322 | 2.0 | 2.0 | 0.00 | 0.00 | 0.00 | 86 | 1010.5 |
| 20260508045120 | 35 | 328 | 2.0 | 2.0 | 0.00 | 0.00 | 0.00 | 85 | 1010.1 |
| 20260508044619 | 35 | 324 | 2.0 | 2.0 | 0.00 | 0.00 | 0.00 | 84 | 1010.5 |
| 20260508044119 | 35 | 331 | 1.0 | 2.0 | 0.00 | 0.00 | 0.00 | 84 | 1010.5 |
| 20260508043618 | 35 | 324 | 2.0 | 2.0 | 0.00 | 0.00 | 0.00 | 84 | 1010.5 |
| 20260508043117 | 35 | 326 | 1.0 | 1.0 | 0.00 | 0.00 | 0.00 | 84 | 1010.5 |
| 20260508042618 | 35 | 324 | 2.0 | 2.0 | 0.00 | 0.00 | 0.00 | 84 | 1010.5 |
| 20260508042117 | 35 | 324 | 1.0 | 2.0 | 0.00 | 0.00 | 0.00 | 84 | 1010.5 |
| 20260508041717 | 35 | 327 | 2.0 | 2.0 | 0.00 | 0.00 | 0.00 | 84 | 1010.5 |
| 20260508041116 | 35 | 326 | 2.0 | 2.0 | 0.00 | 0.00 | 0.00 | 83 | 1010.5 |
| 20260508040619 | 35 | 328 | 1.0 | 2.0 | 0.00 | 0.00 | 0.00 | 83 | 1010.5 |
| 20260508040147 | 36 | 327 | 1.0 | 2.0 | 0.00 | 0.00 | 0.00 | 82 | 1010.5 |
| 20260508035645 | 36 | 328 | 1.0 | 1.0 | 0.00 | 0.00 | 0.00 | 82 | 1010.5 |
| 20260508034644 | 36 | 324 | 2.0 | 2.0 | 0.00 | 0.00 | 0.00 | 82 | 1010.9 |
| 20260508033645 | 37 | 330 | 2.0 | 2.0 | 0.00 | 0.00 | 0.00 | 81 | 1010.5 |
| 20260508033143 | 36 | 331 | 2.0 | 2.0 | 0.00 | 0.00 | 0.00 | 82 | 1010.5 |
| 20260508032644 | 37 | 327 | 2.0 | 2.0 | 0.00 | 0.00 | 0.00 | 81 | 1010.7 |
| 20260508032144 | 37 | 328 | 2.0 | 2.0 | 0.00 | 0.00 | 0.00 | 81 | 1010.9 |
| 20260508031643 | 37 | 329 | 2.0 | 2.0 | 0.00 | 0.00 | 0.00 | 81 | 1010.5 |
| 20260508031142 | 37 | 324 | 1.0 | 1.0 | 0.00 | 0.00 | 0.00 | 81 | 1010.5 |
| 20260508030643 | 37 | 332 | 1.0 | 2.0 | 0.00 | 0.00 | 0.00 | 81 | 1010.5 |
| 20260508030142 | 37 | 326 | 1.0 | 1.0 | 0.00 | 0.00 | 0.00 | 80 | 1010.9 |
| 20260508025641 | 38 | 327 | 1.0 | 2.0 | 0.00 | 0.00 | 0.00 | 80 | 1010.5 |
| 20260508025141 | 38 | 332 | 1.0 | 1.0 | 0.00 | 0.00 | 0.00 | 79 | 1010.5 |
| 20260508024640 | 38 | 327 | 2.0 | 2.0 | 0.00 | 0.00 | 0.00 | 80 | 1010.9 |
| 20260508024141 | 39 | 327 | 2.0 | 2.0 | 0.00 | 0.00 | 0.00 | 78 | 1010.9 |
| 20260508023640 | 39 | 335 | 2.0 | 2.0 | 0.00 | 0.00 | 0.00 | 78 | 1010.7 |
| 20260508023140 | 39 | 326 | 2.0 | 2.0 | 0.00 | 0.00 | 0.00 | 78 | 1010.9 |
| 20260508022639 | 39 | 328 | 2.0 | 2.0 | 0.00 | 0.00 | 0.00 | 77 | 1010.9 |
| 20260508022140 | 39 | 327 | 2.0 | 2.0 | 0.00 | 0.00 | 0.00 | 78 | 1010.7 |
| 20260508021639 | 39 | 324 | 2.0 | 2.0 | 0.00 | 0.00 | 0.00 | 77 | 1010.9 |
| 20260508021139 | 39 | 324 | 2.0 | 2.0 | 0.00 | 0.00 | 0.00 | 78 | 1010.9 |
| 20260508020637 | 40 | 325 | 2.0 | 2.0 | 0.00 | 0.00 | 0.00 | 75 | 1010.9 |
| 20260508020137 | 40 | 329 | 2.0 | 2.0 | 0.00 | 0.00 | 0.00 | 75 | 1010.5 |
| 20260508015639 | 40 | 324 | 2.0 | 2.0 | 0.00 | 0.00 | 0.00 | 76 | 1010.5 |
| 20260508014636 | 40 | 334 | 2.0 | 3.0 | 0.00 | 0.00 | 0.00 | 75 | 1010.3 |
| 20260508014236 | 40 | 329 | 2.0 | 2.0 | 0.00 | 0.00 | 0.00 | 75 | 1010.5 |
| 20260508013638 | 40 | 327 | 2.0 | 2.0 | 0.00 | 0.00 | 0.00 | 76 | 1010.5 |
| 20260508013137 | 40 | 327 | 2.0 | 2.0 | 0.00 | 0.00 | 0.00 | 76 | 1010.1 |
| 20260508012235 | 41 | 325 | 2.0 | 2.0 | 0.00 | 0.00 | 0.00 | 75 | 1010.1 |
| 20260508011736 | 41 | 324 | 1.0 | 2.0 | 0.00 | 0.00 | 0.00 | 73 | 1010.0 |
| 20260508011135 | 41 | 325 | 1.0 | 1.0 | 0.00 | 0.00 | 0.00 | 72 | 1009.8 |
| 20260508010133 | 42 | 328 | 1.0 | 1.0 | 0.00 | 0.00 | 0.00 | 71 | 1009.8 |
| 20260508005634 | 42 | 328 | 1.0 | 1.0 | 0.00 | 0.00 | 0.00 | 69 | 1009.8 |
| 20260508005133 | 43 | 334 | 1.0 | 1.0 | 0.00 | 0.00 | 0.00 | 67 | 1009.8 |
| 20260508004632 | 43 | 336 | 1.0 | 1.0 | 0.00 | 0.00 | 0.00 | 69 | 1009.6 |
| 20260508004131 | 44 | 327 | 1.0 | 1.0 | 0.00 | 0.00 | 0.00 | 66 | 1009.4 |
| 20260508003633 | 44 | 328 | 1.0 | 1.0 | 0.00 | 0.00 | 0.00 | 66 | 1009.4 |
| 20260508003132 | 45 | 0.0 | 0.0 | 0.00 | 0.00 | 0.00 | 60 | 1009.8 | |
| 20260508002633 | 45 | 0.0 | 0.0 | 0.00 | 0.00 | 0.00 | 61 | 1009.4 | |
| 20260508002132 | 46 | 338 | 1.0 | 1.0 | 0.00 | 0.00 | 0.00 | 59 | 1009.4 |
| 20260508001631 | 47 | 332 | 0.0 | 1.0 | 0.00 | 0.00 | 0.00 | 55 | 1009.4 |
| 20260508001131 | 47 | 336 | 0.0 | 1.0 | 0.00 | 0.00 | 0.00 | 55 | 1009.1 |
| 20260508000630 | 48 | 0.0 | 0.0 | 0.00 | 0.00 | 0.00 | 53 | 1009.4 | |
| 20260507235631 | 49 | 324 | 2.0 | 2.0 | 0.00 | 0.00 | 0.00 | 51 | 1009.1 |
| 20260507235129 | 49 | 326 | 1.0 | 2.0 | 0.00 | 0.00 | 0.00 | 50 | 1009.1 |
| 20260507234628 | 49 | 336 | 1.0 | 1.0 | 0.00 | 0.00 | 0.00 | 49 | 1009.1 |
| 20260507234128 | 49 | 282 | 3.0 | 5.0 | 0.00 | 0.00 | 0.00 | 49 | 1009.1 |
| 20260507233629 | 50 | 352 | 3.0 | 6.0 | 0.00 | 0.00 | 0.00 | 49 | 1009.1 |
| 20260507233130 | 50 | 317 | 3.0 | 5.0 | 0.00 | 0.00 | 0.00 | 47 | 1009.1 |
| 20260507232627 | 50 | 333 | 2.0 | 2.0 | 0.00 | 0.00 | 0.00 | 49 | 1009.1 |
| 20260507232227 | 50 | 335 | 2.0 | 5.0 | 0.00 | 0.00 | 0.00 | 47 | 1008.7 |
| 20260507231625 | 50 | 346 | 4.0 | 7.0 | 0.00 | 0.00 | 0.00 | 47 | 1008.9 |
| 20260507231126 | 51 | 303 | 3.0 | 6.0 | 0.00 | 0.00 | 0.00 | 47 | 1008.7 |
| 20260507230626 | 51 | 350 | 4.0 | 5.0 | 0.00 | 0.00 | 0.00 | 47 | 1008.7 |
| 20260507220121 | 55 | 287 | 6.0 | 9.0 | 0.00 | 0.00 | 0.00 | 43 | 1008.7 |
| 20260507215622 | 53 | 323 | 3.0 | 6.0 | 0.00 | 0.00 | 0.00 | 43 | 1008.4 |
| 20260507215122 | 54 | 296 | 4.0 | 6.0 | 0.00 | 0.00 | 0.00 | 44 | 1008.7 |
| 20260507214621 | 55 | 340 | 3.0 | 9.0 | 0.00 | 0.00 | 0.00 | 44 | 1008.7 |
| 20260507214122 | 54 | 327 | 6.0 | 8.0 | 0.00 | 0.00 | 0.00 | 44 | 1008.7 |
| 20260507213619 | 55 | 309 | 3.0 | 5.0 | 0.00 | 0.00 | 0.00 | 43 | 1008.7 |
| 20260507213120 | 55 | 309 | 4.0 | 6.0 | 0.00 | 0.00 | 0.00 | 43 | 1008.7 |
| 20260507212619 | 53 | 336 | 5.0 | 8.0 | 0.00 | 0.00 | 0.00 | 43 | 1008.7 |
| 20260507212118 | 55 | 320 | 7.0 | 9.0 | 0.00 | 0.00 | 0.00 | 42 | 1008.7 |
| 20260507211617 | 55 | 318 | 3.0 | 6.0 | 0.00 | 0.00 | 0.00 | 44 | 1008.7 |
| 20260507211119 | 55 | 41 | 5.0 | 7.0 | 0.00 | 0.00 | 0.00 | 43 | 1008.7 |
| 20260507210618 | 55 | 343 | 3.0 | 5.0 | 0.00 | 0.00 | 0.00 | 43 | 1008.7 |
| 20260507210117 | 55 | 321 | 4.0 | 6.0 | 0.00 | 0.00 | 0.00 | 44 | 1008.7 |
| 20260507205118 | 56 | 92 | 3.0 | 8.0 | 0.00 | 0.00 | 0.00 | 44 | 1008.4 |
| 20260507204617 | 56 | 329 | 3.0 | 7.0 | 0.00 | 0.00 | 0.00 | 44 | 1008.7 |
| 20260507204146 | 55 | 349 | 5.0 | 7.0 | 0.00 | 0.00 | 0.00 | 43 | 1008.7 |
| 20260507203645 | 56 | 29 | 2.0 | 5.0 | 0.00 | 0.00 | 0.00 | 44 | 1008.7 |
| 20260507203144 | 56 | 311 | 4.0 | 6.0 | 0.00 | 0.00 | 0.00 | 43 | 1008.4 |
| 20260507202647 | 56 | 287 | 5.0 | 7.0 | 0.00 | 0.00 | 0.00 | 41 | 1008.6 |
| 20260507202145 | 56 | 356 | 7.0 | 9.0 | 0.00 | 0.00 | 0.00 | 42 | 1008.7 |
| 20260507201647 | 55 | 302 | 6.0 | 10.0 | 0.00 | 0.00 | 0.00 | 44 | 1008.6 |
| 20260507201145 | 55 | 328 | 3.0 | 3.0 | 0.00 | 0.00 | 0.00 | 44 | 1008.7 |
| 20260507200644 | 55 | 349 | 4.0 | 8.0 | 0.00 | 0.00 | 0.00 | 45 | 1008.7 |
| 20260507200143 | 53 | 14 | 6.0 | 14.0 | 0.00 | 0.00 | 0.00 | 46 | 1008.7 |
| 20260507195642 | 54 | 301 | 7.0 | 10.0 | 0.00 | 0.00 | 0.00 | 42 | 1008.6 |
| 20260507195142 | 56 | 286 | 6.0 | 8.0 | 0.00 | 0.00 | 0.00 | 42 | 1008.7 |
| 20260507194643 | 55 | 16 | 3.0 | 6.0 | 0.00 | 0.00 | 0.00 | 43 | 1008.7 |
| 20260507194142 | 55 | 324 | 5.0 | 9.0 | 0.00 | 0.00 | 0.00 | 44 | 1008.7 |
| 20260507193142 | 54 | 288 | 8.0 | 13.0 | 0.00 | 0.00 | 0.00 | 44 | 1008.7 |
| 20260507192642 | 53 | 358 | 4.0 | 7.0 | 0.00 | 0.00 | 0.00 | 46 | 1008.7 |
| 20260507192141 | 53 | 348 | 3.0 | 6.0 | 0.00 | 0.00 | 0.00 | 45 | 1008.7 |
| 20260507191640 | 54 | 298 | 5.0 | 6.0 | 0.00 | 0.00 | 0.00 | 44 | 1008.7 |
| 20260507191139 | 55 | 291 | 7.0 | 11.0 | 0.00 | 0.00 | 0.00 | 43 | 1008.9 |
| 20260507190641 | 57 | 359 | 2.0 | 5.0 | 0.00 | 0.00 | 0.00 | 44 | 1009.1 |
| 20260507185639 | 56 | 277 | 3.0 | 6.0 | 0.00 | 0.00 | 0.00 | 44 | 1009.1 |
| 20260507185138 | 56 | 341 | 4.0 | 8.0 | 0.00 | 0.00 | 0.00 | 46 | 1009.1 |
| 20260507184639 | 55 | 343 | 5.0 | 8.0 | 0.00 | 0.00 | 0.00 | 42 | 1009.1 |
| 20260507184138 | 55 | 320 | 4.0 | 6.0 | 0.00 | 0.00 | 0.00 | 43 | 1009.1 |
| 20260507183637 | 56 | 332 | 5.0 | 8.0 | 0.00 | 0.00 | 0.00 | 42 | 1009.3 |
| 20260507183137 | 56 | 325 | 5.0 | 13.0 | 0.00 | 0.00 | 0.00 | 44 | 1009.4 |
| 20260507182638 | 54 | 358 | 5.0 | 8.0 | 0.00 | 0.00 | 0.00 | 46 | 1009.4 |
| 20260507182137 | 54 | 350 | 7.0 | 9.0 | 0.00 | 0.00 | 0.00 | 45 | 1009.3 |
| 20260507181637 | 54 | 348 | 4.0 | 8.0 | 0.00 | 0.00 | 0.00 | 46 | 1009.6 |
| 20260507181135 | 54 | 19 | 5.0 | 7.0 | 0.00 | 0.00 | 0.00 | 44 | 1009.4 |
| 20260507180637 | 55 | 23 | 6.0 | 9.0 | 0.00 | 0.00 | 0.00 | 44 | 1009.6 |
| 20260507180136 | 55 | 9 | 4.0 | 9.0 | 0.00 | 0.00 | 0.00 | 46 | 1009.4 |
| 20260507175635 | 55 | 349 | 6.0 | 14.0 | 0.00 | 0.00 | 0.00 | 45 | 1009.4 |
| 20260507175134 | 55 | 281 | 6.0 | 10.0 | 0.00 | 0.00 | 0.00 | 46 | 1009.4 |
| 20260507174633 | 55 | 312 | 5.0 | 6.0 | 0.00 | 0.00 | 0.00 | 45 | 1009.4 |
| 20260507174134 | 55 | 349 | 7.0 | 10.0 | 0.00 | 0.00 | 0.00 | 45 | 1009.4 |
| 20260507173634 | 55 | 321 | 6.0 | 11.0 | 0.00 | 0.00 | 0.00 | 48 | 1009.4 |
| 20260507173133 | 54 | 297 | 6.0 | 8.0 | 0.00 | 0.00 | 0.00 | 47 | 1009.4 |
| 20260507172632 | 53 | 352 | 5.0 | 7.0 | 0.00 | 0.00 | 0.00 | 48 | 1009.4 |
| 20260507172133 | 53 | 307 | 5.0 | 10.0 | 0.00 | 0.00 | 0.00 | 50 | 1009.4 |